Alma, MI

6:30 AM EDT on September 20, 2019 (GMT -0400)
Gratiot Community

Weather History for KAMN - May, 2019

Change the Weather History Date:

Monday, May 6, 2019

  Actual Average Record
Temperature  
Mean Temperature 58 °F -  
Max Temperature 67 °F 67 °F 86 °F (1949)
Min Temperature 49 °F 41 °F 27 °F (1970)
Degree Days  
Heating Degree Days 7    
Growing Degree Days 8 (Base 50)    
Moisture  
Dew Point 49 °F    
Average Humidity 76    
Maximum Humidity 90    
Minimum Humidity 58    
Precipitation  
Precipitation 0.00 in - - ()
Sea Level Pressure  
Sea Level Pressure 29.99 in    
Wind  
Wind Speed 5 mph (SSW)    
Max Wind Speed 12 mph    
Max Gust Speed -    
Visibility 10 miles    
Events Rain    
Averages and records for this station are not official NWS values.
T = Trace of Precipitation, MM = Missing Value Source: NWS Daily Summary

Daily Weather History Graph

Daily Weather History Graph

Search for Another Location

Airport or City:

Astronomy

May. 06, 2019 Rise Set
Actual Time 6:25 AM EDT 8:46 PM EDT
Civil Twilight 5:53 AM EDT 9:17 PM EDT
Nautical Twilight 5:14 AM EDT 9:57 PM EDT
Astronomical Twilight 4:30 AM EDT 10:41 PM EDT
Moon 7:46 AM EDT (5/6) 10:44 PM EDT (5/6)
Length of Visible Light 15h 24m
Length of Day
14h 20m
Waxing Crescent, 3% of the Moon is Illuminated
May 6
Waxing Crescent
May 11
First Quarter
May 18
Full
May 26
Last Quarter
Jun 3
New

Hourly Weather History & Observations

Time (EDT) Temp. Dew Point Humidity Pressure Visibility Wind Dir Wind Speed Gust Speed Precip Events Conditions
12:15 AM 52.7 °F 45.5 °F 76% 29.88 in 10.0 mi SSW 3.5 mph - N/A   Clear
12:35 AM 52.9 °F 45.5 °F 76% 29.88 in 10.0 mi Calm Calm - N/A   Clear
12:55 AM 52.2 °F 46.4 °F 81% 29.88 in 10.0 mi South 3.5 mph - N/A   Clear
12:56 AM 52.2 °F 46.6 °F 81% 29.88 in 10.0 mi South 3.5 mph - N/A   Clear
1:15 AM 54.1 °F 45.5 °F 73% 29.87 in 10.0 mi South 4.6 mph - N/A   Clear
1:35 AM 55.0 °F 44.8 °F 68% 29.87 in 10.0 mi SSW 4.6 mph - N/A   Clear
1:55 AM 55.9 °F 44.8 °F 66% 29.88 in 10.0 mi SW 4.6 mph - N/A   Scattered Clouds
2:15 AM 54.7 °F 44.6 °F 69% 29.88 in 10.0 mi SSW 4.6 mph - N/A   Scattered Clouds
2:35 AM 55.8 °F 43.9 °F 64% 29.88 in 10.0 mi SSW 4.6 mph - N/A   Clear
2:55 AM 55.9 °F 44.1 °F 64% 29.89 in 10.0 mi SSW 5.8 mph - N/A   Clear
3:15 AM 55.6 °F 43.9 °F 65% 29.89 in 10.0 mi SSW 4.6 mph - N/A   Clear
3:35 AM 55.0 °F 43.7 °F 66% 29.89 in 10.0 mi SSW 3.5 mph - N/A   Clear
3:36 AM 54.9 °F 43.7 °F 66% 29.89 in 10.0 mi SSW 3.5 mph - N/A   Clear
3:55 AM 54.5 °F 43.9 °F 67% 29.89 in 10.0 mi SSW 3.5 mph - N/A   Clear
3:56 AM 54.5 °F 43.9 °F 67% 29.89 in 10.0 mi SSW 4.6 mph - N/A   Clear
4:15 AM 53.6 °F 44.2 °F 71% 29.89 in 10.0 mi SW 3.5 mph - N/A   Clear
4:16 AM 53.8 °F 44.2 °F 70% 29.89 in 10.0 mi SSW 4.6 mph - N/A   Clear
4:35 AM 55.4 °F 45.7 °F 70% 29.90 in 10.0 mi WSW 4.6 mph - N/A   Scattered Clouds
4:36 AM 55.4 °F 45.7 °F 70% 29.90 in 10.0 mi WSW 4.6 mph - N/A   Scattered Clouds
4:55 AM 55.4 °F 46.0 °F 71% 29.90 in 10.0 mi WSW 4.6 mph - N/A   Mostly Cloudy
5:15 AM 55.6 °F 46.0 °F 70% 29.90 in 10.0 mi Calm Calm - N/A   Overcast
5:35 AM 55.8 °F 46.4 °F 71% 29.91 in 10.0 mi SW 4.6 mph - N/A   Overcast
5:55 AM 55.9 °F 46.6 °F 71% 29.91 in 10.0 mi WSW 5.8 mph - N/A   Overcast
6:15 AM 55.9 °F 47.3 °F 73% 29.91 in 10.0 mi SSW 4.6 mph - N/A   Overcast
6:16 AM 55.9 °F 47.3 °F 73% 29.91 in 10.0 mi SSW 3.5 mph - N/A   Overcast
6:35 AM 55.8 °F 47.5 °F 74% 29.92 in 10.0 mi SW 3.5 mph - N/A   Overcast
6:36 AM 55.8 °F 47.5 °F 74% 29.92 in 10.0 mi SW 3.5 mph - N/A   Overcast
6:55 AM 55.6 °F 47.7 °F 75% 29.93 in 10.0 mi SW 3.5 mph - N/A   Overcast
6:56 AM 55.6 °F 47.7 °F 75% 29.93 in 10.0 mi Calm Calm - N/A   Overcast
7:15 AM 56.1 °F 48.6 °F 76% 29.95 in 10.0 mi SW 4.6 mph - N/A   Overcast
7:35 AM 57.2 °F 48.9 °F 74% 29.95 in 10.0 mi SW 4.6 mph - N/A   Scattered Clouds
7:55 AM 57.7 °F 49.1 °F 73% 29.96 in 10.0 mi SW 4.6 mph - N/A   Clear
8:15 AM 58.6 °F 49.3 °F 71% 29.97 in 10.0 mi SW 4.6 mph - N/A   Scattered Clouds
8:35 AM 59.0 °F 50.2 °F 73% 29.97 in 10.0 mi SW 5.8 mph - N/A   Mostly Cloudy
8:55 AM 59.9 °F 50.5 °F 71% 29.98 in 10.0 mi SW 5.8 mph - N/A   Overcast
8:56 AM 59.9 °F 50.7 °F 72% 29.98 in 10.0 mi SW 5.8 mph - N/A   Overcast
9:15 AM 60.1 °F 50.9 °F 72% 29.97 in 10.0 mi SW 5.8 mph - N/A   Overcast
9:16 AM 60.1 °F 50.9 °F 72% 29.97 in 10.0 mi SW 6.9 mph - N/A   Overcast
9:35 AM 60.1 °F 51.1 °F 72% 29.97 in 10.0 mi SW 6.9 mph - N/A   Overcast
9:36 AM 60.1 °F 51.1 °F 72% 29.97 in 10.0 mi SW 5.8 mph - N/A   Overcast
9:55 AM 60.8 °F 51.4 °F 71% 29.97 in 10.0 mi SW 5.8 mph - N/A   Overcast
9:56 AM 60.8 °F 51.6 °F 72% 29.97 in 10.0 mi SW 5.8 mph - N/A   Overcast
10:15 AM 63.1 °F 52.3 °F 68% 29.97 in 10.0 mi SSW 6.9 mph - N/A   Scattered Clouds
10:35 AM 63.7 °F 52.5 °F 67% 29.97 in 10.0 mi SW 5.8 mph - N/A   Mostly Cloudy
10:55 AM 64.2 °F 52.7 °F 66% 29.97 in 10.0 mi SSW 3.5 mph - N/A   Mostly Cloudy
11:15 AM 65.8 °F 52.9 °F 63% 29.98 in 10.0 mi SW 6.9 mph - N/A   Scattered Clouds
11:35 AM 66.2 °F 52.0 °F 60% 29.97 in 10.0 mi SW 4.6 mph - N/A   Mostly Cloudy
11:56 AM 67.8 °F 52.7 °F 58% 29.98 in 10.0 mi SW 6.9 mph - N/A   Overcast
12:15 PM 66.2 °F 51.8 °F 60% 29.99 in 10.0 mi WSW 9.2 mph - N/A   Overcast
12:16 PM 66.0 °F 52.0 °F 60% 29.99 in 10.0 mi WSW 8.1 mph - N/A   Overcast
12:35 PM 63.7 °F 54.3 °F 72% 29.99 in 7.0 mi WSW 6.9 mph - N/A Rain Rain
12:36 PM 63.7 °F 54.5 °F 72% 29.99 in 7.0 mi WSW 6.9 mph - N/A Rain Light Rain
12:55 PM 62.8 °F 56.3 °F 79% 29.99 in 10.0 mi WSW 5.8 mph - N/A   Overcast
12:56 PM 62.6 °F 56.3 °F 80% 29.99 in 10.0 mi WSW 6.9 mph - N/A   Overcast
1:15 PM 63.9 °F 56.8 °F 78% 29.99 in 10.0 mi WSW 4.6 mph - N/A   Overcast
1:35 PM 63.1 °F 55.2 °F 75% 30.00 in 10.0 mi NW 11.5 mph - N/A   Overcast
1:55 PM 61.3 °F 55.4 °F 81% 30.01 in 10.0 mi NW 9.2 mph - N/A   Overcast
2:15 PM 60.1 °F 56.3 °F 87% 30.02 in 7.0 mi North 8.1 mph - N/A Rain Heavy Rain
2:16 PM 60.1 °F 56.3 °F 87% 30.02 in 7.0 mi North 8.1 mph - N/A Rain Rain
2:35 PM 58.1 °F 55.0 °F 90% 30.03 in 5.0 mi North 8.1 mph - N/A Rain Light Rain
2:55 PM 56.3 °F 53.2 °F 89% 30.03 in 7.0 mi NNE 8.1 mph - N/A Rain Light Rain
3:15 PM 55.8 °F 52.9 °F 90% 30.03 in 10.0 mi NNE 6.9 mph - N/A   Overcast
3:35 PM 55.6 °F 52.7 °F 90% 30.03 in 10.0 mi ENE 6.9 mph - N/A   Overcast
3:56 PM 54.5 °F 51.4 °F 89% 30.03 in 10.0 mi NE 6.9 mph - N/A   Overcast
4:15 PM 54.5 °F 51.3 °F 89% 30.03 in 10.0 mi NE 8.1 mph - N/A   Overcast
4:16 PM 54.5 °F 51.3 °F 89% 30.03 in 10.0 mi NE 8.1 mph - N/A   Overcast
4:35 PM 54.1 °F 50.5 °F 88% 30.03 in 10.0 mi NE 8.1 mph - N/A   Overcast
4:36 PM 54.1 °F 50.5 °F 88% 30.03 in 10.0 mi NE 6.9 mph - N/A   Overcast
4:55 PM 54.5 °F 50.7 °F 87% 30.03 in 10.0 mi NE 8.1 mph - N/A   Overcast
4:56 PM 54.5 °F 50.7 °F 87% 30.03 in 10.0 mi NE 8.1 mph - N/A   Overcast
5:15 PM 54.7 °F 50.7 °F 86% 30.03 in 10.0 mi ENE 5.8 mph - N/A   Overcast
5:16 PM 54.7 °F 50.7 °F 86% 30.03 in 10.0 mi ENE 5.8 mph - N/A   Overcast
5:35 PM 55.4 °F 51.1 °F 85% 30.04 in 10.0 mi ENE 8.1 mph - N/A   Overcast
5:36 PM 55.4 °F 51.3 °F 86% 30.04 in 10.0 mi NE 8.1 mph - N/A   Overcast
5:55 PM 55.8 °F 51.6 °F 86% 30.03 in 10.0 mi NE 9.2 mph - N/A   Overcast
5:56 PM 55.9 °F 51.6 °F 85% 30.03 in 10.0 mi NE 8.1 mph - N/A   Overcast
6:15 PM 55.6 °F 51.3 °F 85% 30.04 in 10.0 mi NE 9.2 mph - N/A   Overcast
6:16 PM 55.4 °F 51.3 °F 86% 30.04 in 10.0 mi NE 9.2 mph - N/A   Overcast
6:35 PM 54.7 °F 50.4 °F 85% 30.04 in 10.0 mi NE 8.1 mph - N/A   Overcast
6:55 PM 54.5 °F 50.4 °F 86% 30.05 in 10.0 mi NE 9.2 mph - N/A   Overcast
7:15 PM 54.3 °F 50.4 °F 86% 30.05 in 10.0 mi NE 8.1 mph - N/A   Overcast
7:35 PM 53.6 °F 49.6 °F 86% 30.05 in 10.0 mi ENE 9.2 mph - N/A   Overcast
7:55 PM 53.1 °F 49.1 °F 86% 30.06 in 10.0 mi ENE 6.9 mph - N/A   Overcast
8:15 PM 52.5 °F 48.4 °F 86% 30.07 in 10.0 mi NE 8.1 mph - N/A   Overcast
8:35 PM 51.8 °F 46.6 °F 82% 30.07 in 10.0 mi NE 9.2 mph - N/A   Overcast
8:36 PM 51.8 °F 46.6 °F 82% 30.08 in 10.0 mi NE 9.2 mph - N/A   Overcast
8:55 PM 50.9 °F 44.8 °F 80% 30.09 in 10.0 mi NE 8.1 mph - N/A   Overcast
8:56 PM 50.9 °F 44.6 °F 79% 30.09 in 10.0 mi NE 8.1 mph - N/A   Overcast
9:15 PM 50.7 °F 44.4 °F 79% 30.10 in 10.0 mi ENE 6.9 mph - N/A   Overcast
9:16 PM 50.7 °F 44.4 °F 79% 30.10 in 10.0 mi ENE 6.9 mph - N/A   Overcast
9:35 PM 50.7 °F 44.2 °F 78% 30.10 in 10.0 mi NE 5.8 mph - N/A   Overcast
9:55 PM 50.5 °F 42.8 °F 75% 30.11 in 10.0 mi NE 5.8 mph - N/A   Overcast
10:15 PM 50.4 °F 41.9 °F 73% 30.13 in 10.0 mi NNE 6.9 mph - N/A   Overcast
10:35 PM 50.2 °F 41.0 °F 71% 30.13 in 10.0 mi NE 6.9 mph - N/A   Overcast
10:55 PM 50.2 °F 40.3 °F 69% 30.13 in 10.0 mi NE 4.6 mph - N/A   Overcast
10:56 PM 50.2 °F 40.3 °F 69% 30.13 in 10.0 mi NE 4.6 mph - N/A   Overcast
11:15 PM 50.2 °F 41.0 °F 71% 30.13 in 10.0 mi NE 3.5 mph - N/A   Overcast
11:35 PM 50.0 °F 41.9 °F 74% 30.12 in 10.0 mi NE 3.5 mph - N/A   Overcast
11:36 PM 50.0 °F 41.9 °F 74% 30.13 in 10.0 mi NE 3.5 mph - N/A   Overcast
11:55 PM 49.6 °F 41.2 °F 73% 30.13 in 10.0 mi NE 3.5 mph - N/A   Overcast
11:56 PM 49.6 °F 41.2 °F 73% 30.13 in 10.0 mi NE 3.5 mph - N/A   Overcast